Tracking 19193 objects as of 24-Jun-2018
HD Live streaming from Space Station
objects crossing your sky now

FENGYUN 1C DEB

Track FENGYUN 1C DEB now!
10-day predictions


NORAD ID: 32329
Int'l Code: 1999-025CXW
Perigee: 797.9 km
Apogee: 875.0 km
Inclination: 100.0 °
Period: 101.5 minutes
Semi major axis: 7207 km
RCS: 0.0108 m2 (small)
Launch date: May 10, 1999
Source: People's Republic of China (PRC)
Launch site: Taiyaun Space Center, China (TSC)

Note: This is SATELLITE DEBRIS
aabbcc
Your satellite tracking list
Your tracking list is empty




NASA's NSSDC Master Catalog

Two Line Element Set (TLE):
1 32329U 99025CXW 18174.61758607 +.00000574 +00000-0 +29793-3 0  9994
2 32329 099.9555 321.8099 0053436 316.6709 043.0267 14.18827837191246
Source of the keplerian elements: AFSPC